Location: Observatoire de Paris
(48.8363°N, 2.3365°E)
Time: 04:20:11
(UTC+01:00)

Vanguard 3 - Pass Details

Date: 06 August 2021
Orbit: 510 x 3260 km, 33.3° (Epoch: 18 September)

Event Time Altitude Azimuth Distance (km) Brightness Sun altitude
Rises 01:07:49 0° 272° (W) 7,131 12.0 -24.4°
Reaches altitude 10° 01:18:53 10° 244° (WSW) 6,177 11.3 -24.3°
Maximum altitude 01:22:54 11° 232° (SW) 6,016 11.2 -24.2°
Enters shadow 01:23:55 11° 229° (SW) 5,994 11.1 -24.2°
